| time (UTC) | temp F | wind direction | speed knots | gust knots | rain 1hr in | rain 24hr in | rain mn in | humidity % | barometer mb |
| 20260505011815 | 74 | 150 | 0.9 | 7.0 | 0.00 | 0.00 | 0.00 | 45 | 1006.4 |
| 20260505011312 | 74 | 184 | 1.7 | 6.1 | 0.00 | 0.00 | 0.00 | 45 | 1006.4 |
| 20260505010808 | 74 | 184 | 0.9 | 3.5 | 0.00 | 0.00 | 0.00 | 45 | 1006.3 |
| 20260505010304 | 74 | 149 | 1.7 | 2.6 | 0.00 | 0.00 | 0.00 | 44 | 1006.3 |
| 20260505005800 | 74 | 187 | 1.7 | 3.5 | 0.00 | 0.00 | 0.00 | 44 | 1006.2 |
| 20260505005257 | 75 | 200 | 2.6 | 6.1 | 0.00 | 0.00 | 0.00 | 44 | 1006.3 |
| 20260505004755 | 75 | 183 | 2.6 | 5.2 | 0.00 | 0.00 | 0.00 | 44 | 1006.2 |
| 20260505004250 | 75 | 170 | 1.7 | 1.7 | 0.00 | 0.00 | 0.00 | 44 | 1006.1 |
| 20260505003748 | 75 | 131 | 1.7 | 7.0 | 0.00 | 0.00 | 0.00 | 43 | 1006.0 |
| 20260505003246 | 75 | 178 | 3.5 | 7.0 | 0.00 | 0.00 | 0.00 | 42 | 1006.0 |
| 20260505002742 | 76 | 202 | 1.7 | 7.0 | 0.00 | 0.00 | 0.00 | 41 | 1006.3 |
| 20260505002239 | 76 | 129 | 1.7 | 6.1 | 0.00 | 0.00 | 0.00 | 41 | 1006.2 |
| 20260505001737 | 76 | 196 | 2.6 | 3.5 | 0.00 | 0.00 | 0.00 | 40 | 1006.1 |
| 20260505001234 | 77 | 189 | 4.3 | 7.0 | 0.00 | 0.00 | 0.00 | 40 | 1006.0 |
| 20260505000731 | 77 | 215 | 3.5 | 9.6 | 0.00 | 0.00 | 0.00 | 40 | 1006.1 |
| 20260505000229 | 78 | 158 | 3.5 | 8.7 | 0.00 | 0.00 | 0.00 | 39 | 1006.1 |
| 20260504235725 | 78 | 238 | 6.1 | 7.8 | 0.00 | 0.00 | 0.00 | 38 | 1006.1 |
| 20260504235221 | 78 | 205 | 1.7 | 2.6 | 0.00 | 0.00 | 0.00 | 39 | 1006.2 |
| 20260504234719 | 78 | 198 | 4.3 | 6.1 | 0.00 | 0.00 | 0.00 | 38 | 1006.3 |
| 20260504234216 | 78 | 266 | 1.7 | 6.1 | 0.00 | 0.00 | 0.00 | 38 | 1006.3 |
| 20260504233712 | 78 | 242 | 5.2 | 7.0 | 0.00 | 0.00 | 0.00 | 37 | 1006.2 |
| 20260504233208 | 78 | 237 | 3.5 | 12.2 | 0.00 | 0.00 | 0.00 | 37 | 1006.3 |
| 20260504232705 | 79 | 214 | 3.5 | 12.2 | 0.00 | 0.00 | 0.00 | 37 | 1006.3 |
| 20260504232202 | 79 | 181 | 2.6 | 7.0 | 0.00 | 0.00 | 0.00 | 37 | 1006.2 |
| 20260504231659 | 79 | 243 | 5.2 | 7.0 | 0.00 | 0.00 | 0.00 | 36 | 1006.3 |
| 20260504231155 | 80 | 270 | 4.3 | 7.0 | 0.00 | 0.00 | 0.00 | 36 | 1006.5 |
| 20260504230651 | 80 | 182 | 0.0 | 9.6 | 0.00 | 0.00 | 0.00 | 36 | 1006.3 |
| 20260504230150 | 80 | 205 | 5.2 | 11.3 | 0.00 | 0.00 | 0.00 | 36 | 1006.4 |
| 20260504225648 | 80 | 121 | 3.5 | 13.0 | 0.00 | 0.00 | 0.00 | 35 | 1006.3 |
| 20260504225144 | 80 | 140 | 1.7 | 8.7 | 0.00 | 0.00 | 0.00 | 36 | 1006.2 |
| 20260504224641 | 80 | 183 | 5.2 | 9.6 | 0.00 | 0.00 | 0.00 | 34 | 1006.3 |
| 20260504224138 | 80 | 187 | 0.9 | 8.7 | 0.00 | 0.00 | 0.00 | 37 | 1006.5 |
| 20260504223635 | 80 | 224 | 5.2 | 11.3 | 0.00 | 0.00 | 0.00 | 35 | 1006.5 |
| 20260504223131 | 81 | 90 | 2.6 | 7.8 | 0.00 | 0.00 | 0.00 | 37 | 1006.3 |
| 20260504222628 | 80 | 218 | 2.6 | 7.0 | 0.00 | 0.00 | 0.00 | 37 | 1006.3 |
| 20260504222125 | 81 | 240 | 2.6 | 8.7 | 0.00 | 0.00 | 0.00 | 37 | 1006.5 |
| 20260504221622 | 81 | 211 | 3.5 | 6.1 | 0.00 | 0.00 | 0.00 | 36 | 1006.3 |
| 20260504221119 | 81 | 228 | 1.7 | 7.0 | 0.00 | 0.00 | 0.00 | 36 | 1006.4 |
| 20260504220615 | 81 | 149 | 2.6 | 8.7 | 0.00 | 0.00 | 0.00 | 36 | 1006.4 |
| 20260504220113 | 81 | 260 | 7.8 | 11.3 | 0.00 | 0.00 | 0.00 | 35 | 1006.2 |
| 20260504215609 | 81 | 154 | 7.0 | 12.2 | 0.00 | 0.00 | 0.00 | 34 | 1006.5 |
| 20260504215107 | 81 | 239 | 7.0 | 8.7 | 0.00 | 0.00 | 0.00 | 34 | 1006.6 |
| 20260504214602 | 82 | 250 | 3.5 | 5.2 | 0.00 | 0.00 | 0.00 | 35 | 1006.3 |
| 20260504214059 | 82 | 204 | 2.6 | 7.0 | 0.00 | 0.00 | 0.00 | 36 | 1006.5 |
| 20260504213555 | 81 | 139 | 3.5 | 8.7 | 0.00 | 0.00 | 0.00 | 35 | 1006.5 |
| 20260504213052 | 82 | 196 | 3.5 | 15.6 | 0.00 | 0.00 | 0.00 | 35 | 1006.5 |
| 20260504212548 | 82 | 236 | 5.2 | 7.8 | 0.00 | 0.00 | 0.00 | 36 | 1006.5 |
| 20260504212046 | 82 | 154 | 2.6 | 7.8 | 0.00 | 0.00 | 0.00 | 35 | 1006.5 |
| 20260504211543 | 82 | 214 | 2.6 | 6.1 | 0.00 | 0.00 | 0.00 | 36 | 1006.5 |
| 20260504211039 | 82 | 186 | 2.6 | 7.8 | 0.00 | 0.00 | 0.00 | 35 | 1006.6 |
| 20260504210536 | 82 | 224 | 4.3 | 7.8 | 0.00 | 0.00 | 0.00 | 37 | 1006.6 |
| 20260504210033 | 82 | 142 | 1.7 | 9.6 | 0.00 | 0.00 | 0.00 | 36 | 1006.7 |
| 20260504205531 | 82 | 143 | 2.6 | 9.6 | 0.00 | 0.00 | 0.00 | 36 | 1006.7 |
| 20260504205029 | 81 | 225 | 2.6 | 7.0 | 0.00 | 0.00 | 0.00 | 37 | 1006.7 |
| 20260504204527 | 82 | 153 | 5.2 | 13.0 | 0.00 | 0.00 | 0.00 | 35 | 1006.9 |
| 20260504204026 | 82 | 152 | 2.6 | 7.8 | 0.00 | 0.00 | 0.00 | 35 | 1006.9 |
| 20260504203523 | 82 | 217 | 2.6 | 13.9 | 0.00 | 0.00 | 0.00 | 37 | 1006.9 |
| 20260504203020 | 81 | 268 | 6.1 | 9.6 | 0.00 | 0.00 | 0.00 | 37 | 1007.1 |
| 20260504202516 | 82 | 119 | 4.3 | 7.0 | 0.00 | 0.00 | 0.00 | 37 | 1007.1 |
| 20260504202013 | 82 | 231 | 3.5 | 7.8 | 0.00 | 0.00 | 0.00 | 38 | 1007.1 |
| 20260504201510 | 82 | 175 | 3.5 | 11.3 | 0.00 | 0.00 | 0.00 | 36 | 1007.4 |
| 20260504201008 | 81 | 113 | 4.3 | 7.8 | 0.00 | 0.00 | 0.00 | 36 | 1007.4 |
| 20260504200504 | 81 | 231 | 3.5 | 13.0 | 0.00 | 0.00 | 0.00 | 36 | 1007.4 |
| 20260504200000 | 82 | 348 | 4.3 | 7.8 | 0.00 | 0.00 | 0.00 | 35 | 1007.5 |
| 20260504195456 | 82 | 229 | 8.7 | 13.0 | 0.00 | 0.00 | 0.00 | 35 | 1007.7 |
| 20260504194953 | 82 | 225 | 2.6 | 7.0 | 0.00 | 0.00 | 0.00 | 36 | 1007.8 |
| 20260504194449 | 81 | 220 | 3.5 | 9.6 | 0.00 | 0.00 | 0.00 | 37 | 1008.0 |
| 20260504193945 | 82 | 232 | 4.3 | 11.3 | 0.00 | 0.00 | 0.00 | 34 | 1007.9 |
| 20260504193443 | 82 | 201 | 2.6 | 8.7 | 0.00 | 0.00 | 0.00 | 36 | 1007.9 |
| 20260504192942 | 82 | 191 | 8.7 | 13.9 | 0.00 | 0.00 | 0.00 | 35 | 1008.0 |
| 20260504192438 | 82 | 218 | 2.6 | 7.0 | 0.00 | 0.00 | 0.00 | 37 | 1008.1 |
| 20260504191937 | 81 | 224 | 0.9 | 3.5 | 0.00 | 0.00 | 0.00 | 39 | 1008.2 |
| 20260504191435 | 81 | 240 | 2.6 | 9.6 | 0.00 | 0.00 | 0.00 | 36 | 1008.3 |
| 20260504190935 | 81 | 217 | 3.5 | 8.7 | 0.00 | 0.00 | 0.00 | 35 | 1008.3 |
| 20260504190432 | 81 | 204 | 2.6 | 8.7 | 0.00 | 0.00 | 0.00 | 37 | 1008.3 |
| 20260504185928 | 81 | 140 | 1.7 | 13.0 | 0.00 | 0.00 | 0.00 | 37 | 1008.3 |
| 20260504185426 | 81 | 199 | 4.3 | 8.7 | 0.00 | 0.00 | 0.00 | 37 | 1008.4 |
| 20260504184921 | 81 | 108 | 4.3 | 12.2 | 0.00 | 0.00 | 0.00 | 35 | 1008.7 |
| 20260504184417 | 81 | 312 | 4.3 | 7.0 | 0.00 | 0.00 | 0.00 | 38 | 1008.6 |
| 20260504183914 | 80 | 216 | 3.5 | 6.1 | 0.00 | 0.00 | 0.00 | 41 | 1008.5 |
| 20260504183411 | 80 | 165 | 3.5 | 7.8 | 0.00 | 0.00 | 0.00 | 38 | 1008.5 |
| 20260504182909 | 80 | 294 | 7.8 | 11.3 | 0.00 | 0.00 | 0.00 | 37 | 1008.8 |
| 20260504182405 | 80 | 255 | 4.3 | 7.8 | 0.00 | 0.00 | 0.00 | 40 | 1009.1 |
| 20260504181902 | 79 | 245 | 5.2 | 9.6 | 0.00 | 0.00 | 0.00 | 39 | 1008.8 |
| 20260504181400 | 78 | 232 | 5.2 | 15.6 | 0.00 | 0.00 | 0.00 | 39 | 1008.9 |
| 20260504180858 | 78 | 232 | 5.2 | 9.6 | 0.00 | 0.00 | 0.00 | 39 | 1008.8 |
| 20260504180356 | 79 | 198 | 9.6 | 12.2 | 0.00 | 0.00 | 0.00 | 39 | 1009.1 |
| 20260504175854 | 79 | 171 | 8.7 | 13.9 | 0.00 | 0.00 | 0.00 | 39 | 1009.3 |
| 20260504175351 | 80 | 160 | 1.7 | 11.3 | 0.00 | 0.00 | 0.00 | 39 | 1009.0 |
| 20260504174849 | 80 | 139 | 7.8 | 13.9 | 0.00 | 0.00 | 0.00 | 38 | 1009.3 |
| 20260504174346 | 79 | 324 | 5.2 | 11.3 | 0.00 | 0.00 | 0.00 | 39 | 1009.1 |
| 20260504173843 | 79 | 205 | 3.5 | 8.7 | 0.00 | 0.00 | 0.00 | 38 | 1009.2 |
| 20260504173340 | 80 | 279 | 3.5 | 8.7 | 0.00 | 0.00 | 0.00 | 42 | 1009.5 |
| 20260504172837 | 80 | 202 | 3.5 | 7.8 | 0.00 | 0.00 | 0.00 | 39 | 1009.5 |
| 20260504172333 | 80 | 133 | 5.2 | 9.6 | 0.00 | 0.00 | 0.00 | 39 | 1009.8 |
| 20260504171829 | 79 | 147 | 4.3 | 11.3 | 0.00 | 0.00 | 0.00 | 40 | 1009.5 |
| 20260504171327 | 79 | 208 | 2.6 | 8.7 | 0.00 | 0.00 | 0.00 | 42 | 1009.6 |
| 20260504170824 | 79 | 195 | 4.3 | 7.0 | 0.00 | 0.00 | 0.00 | 41 | 1009.8 |
| 20260504170321 | 79 | 250 | 7.0 | 9.6 | 0.00 | 0.00 | 0.00 | 41 | 1009.7 |
| 20260504160239 | 77 | 185 | 2.6 | 8.7 | 0.00 | 0.00 | 0.00 | 48 | 1010.6 |
| 20260504150704 | 73 | 174 | 1.7 | 6.1 | 0.00 | 0.00 | 0.00 | 53 | 1011.0 |
| 20260504150201 | 73 | 188 | 4.3 | 7.8 | 0.00 | 0.00 | 0.00 | 51 | 1010.9 |
| 20260504141130 | 69 | 166 | 0.0 | 5.2 | 0.00 | 0.00 | 0.00 | 59 | 1011.2 |
| 20260504140627 | 69 | 135 | 3.5 | 7.0 | 0.00 | 0.00 | 0.00 | 59 | 1011.1 |
| 20260504140122 | 69 | 91 | 3.5 | 7.8 | 0.00 | 0.00 | 0.00 | 60 | 1011.1 |
| 20260504130551 | 64 | 180 | 0.9 | 5.2 | 0.00 | 0.00 | 0.00 | 67 | 1011.0 |
| 20260504110438 | 61 | 174 | 0.0 | 2.6 | 0.00 | 0.00 | 0.00 | 68 | 1009.9 |
| 20260504100355 | 63 | 163 | 0.0 | 3.5 | 0.00 | 0.00 | 0.00 | 64 | 1010.2 |
| 20260504081748 | 63 | 175 | 2.6 | 3.5 | 0.00 | 0.00 | 0.00 | 61 | 1010.4 |
| 20260504081244 | 63 | 199 | 0.9 | 2.6 | 0.00 | 0.00 | 0.00 | 61 | 1010.6 |
| 20260504080741 | 63 | 179 | 0.9 | 1.7 | 0.00 | 0.00 | 0.00 | 60 | 1010.4 |
| 20260504080237 | 63 | 153 | 0.0 | 2.6 | 0.00 | 0.00 | 0.00 | 60 | 1010.5 |
| 20260504070205 | 62 | 171 | 1.7 | 3.5 | 0.00 | 0.00 | 0.00 | 59 | 1011.0 |
| 20260504060125 | 62 | 190 | 1.7 | 1.7 | 0.00 | 0.00 | 0.00 | 58 | 1011.8 |
| 20260504050554 | 62 | 169 | 0.0 | 0.9 | 0.00 | 0.00 | 0.00 | 58 | 1012.2 |
| 20260504045547 | 62 | 154 | 0.0 | 1.7 | 0.00 | 0.00 | 0.00 | 57 | 1011.9 |
| 20260504045043 | 62 | 162 | 0.9 | 1.7 | 0.00 | 0.00 | 0.00 | 57 | 1012.2 |
| 20260504044540 | 62 | 163 | 0.9 | 1.7 | 0.00 | 0.00 | 0.00 | 57 | 1012.1 |
| 20260504044037 | 62 | 161 | 0.9 | 1.7 | 0.00 | 0.00 | 0.00 | 56 | 1012.0 |
| 20260504043534 | 62 | 157 | 0.0 | 3.5 | 0.00 | 0.00 | 0.00 | 56 | 1012.1 |
| 20260504043032 | 63 | 153 | 0.9 | 0.9 | 0.00 | 0.00 | 0.00 | 56 | 1012.0 |
| 20260504042528 | 63 | 157 | 0.9 | 1.7 | 0.00 | 0.00 | 0.00 | 56 | 1012.1 |
| 20260504042025 | 63 | 162 | 0.0 | 1.7 | 0.00 | 0.00 | 0.00 | 56 | 1012.1 |
| 20260504041521 | 63 | 152 | 0.9 | 1.7 | 0.00 | 0.00 | 0.00 | 55 | 1012.1 |
| 20260504041017 | 63 | 140 | 1.7 | 1.7 | 0.00 | 0.00 | 0.00 | 54 | 1012.0 |
| 20260504040515 | 63 | 165 | 0.0 | 1.7 | 0.00 | 0.00 | 0.00 | 54 | 1012.0 |
| 20260504040012 | 63 | 148 | 0.9 | 2.6 | 0.00 | 0.00 | 0.00 | 55 | 1012.0 |
| 20260504035509 | 63 | 170 | 1.7 | 2.6 | 0.00 | 0.00 | 0.00 | 54 | 1012.1 |
| 20260504035005 | 63 | 159 | 0.9 | 1.7 | 0.00 | 0.00 | 0.00 | 54 | 1012.0 |
| 20260504034503 | 63 | 162 | 0.9 | 1.7 | 0.00 | 0.00 | 0.00 | 54 | 1012.2 |
| 20260504033959 | 63 | 148 | 0.9 | 1.7 | 0.00 | 0.00 | 0.00 | 53 | 1012.3 |
| 20260504033457 | 63 | 157 | 0.0 | 1.7 | 0.00 | 0.00 | 0.00 | 53 | 1012.1 |
| 20260504032954 | 63 | 160 | 0.0 | 1.7 | 0.00 | 0.00 | 0.00 | 53 | 1012.3 |
| 20260504032451 | 63 | 171 | 0.9 | 1.7 | 0.00 | 0.00 | 0.00 | 53 | 1012.4 |
| 20260504031948 | 63 | 154 | 0.9 | 1.7 | 0.00 | 0.00 | 0.00 | 53 | 1012.5 |
| 20260504031445 | 63 | 161 | 0.0 | 1.7 | 0.00 | 0.00 | 0.00 | 53 | 1012.5 |
| 20260504030941 | 63 | 167 | 0.0 | 0.0 | 0.00 | 0.00 | 0.00 | 54 | 1012.5 |
| 20260504030438 | 63 | 167 | 0.0 | 0.9 | 0.00 | 0.00 | 0.00 | 55 | 1012.5 |
| 20260504025934 | 62 | 154 | 0.0 | 0.9 | 0.00 | 0.00 | 0.00 | 56 | 1012.6 |
| 20260504025431 | 62 | 164 | 0.0 | 0.0 | 0.00 | 0.00 | 0.00 | 57 | 1012.5 |
| 20260504024928 | 62 | 164 | 0.0 | 0.9 | 0.00 | 0.00 | 0.00 | 54 | 1012.4 |
| 20260504024425 | 63 | 169 | 0.0 | 0.0 | 0.00 | 0.00 | 0.00 | 55 | 1012.4 |
| 20260504023922 | 63 | 171 | 0.0 | 0.0 | 0.00 | 0.00 | 0.00 | 55 | 1012.5 |
| 20260504023419 | 63 | 171 | 0.0 | 0.0 | 0.00 | 0.00 | 0.00 | 55 | 1012.3 |
| 20260504022914 | 63 | 171 | 0.0 | 0.0 | 0.00 | 0.00 | 0.00 | 54 | 1012.4 |
| 20260504022411 | 63 | 171 | 0.0 | 0.0 | 0.00 | 0.00 | 0.00 | 56 | 1012.2 |
| 20260504021908 | 63 | 171 | 0.0 | 0.0 | 0.00 | 0.00 | 0.00 | 55 | 1012.2 |
| 20260504021405 | 63 | 171 | 0.0 | 0.0 | 0.00 | 0.00 | 0.00 | 55 | 1012.4 |
| 20260504020902 | 63 | 171 | 0.0 | 0.0 | 0.00 | 0.00 | 0.00 | 54 | 1012.4 |
| 20260504020359 | 64 | 171 | 0.0 | 0.0 | 0.00 | 0.00 | 0.00 | 53 | 1012.4 |
| 20260504015855 | 64 | 171 | 0.0 | 0.0 | 0.00 | 0.00 | 0.00 | 52 | 1012.2 |
| 20260504015351 | 64 | 171 | 0.0 | 0.0 | 0.00 | 0.00 | 0.00 | 52 | 1012.2 |
| 20260504014847 | 64 | 171 | 0.0 | 0.0 | 0.00 | 0.00 | 0.00 | 51 | 1012.2 |
| 20260504014343 | 64 | 171 | 0.0 | 0.0 | 0.00 | 0.00 | 0.00 | 50 | 1012.1 |
| 20260504013841 | 65 | 171 | 0.0 | 0.0 | 0.00 | 0.00 | 0.00 | 50 | 1012.0 |
| 20260504013339 | 65 | 171 | 0.0 | 0.0 | 0.00 | 0.00 | 0.00 | 48 | 1012.0 |
| 20260504012835 | 66 | 171 | 0.0 | 0.0 | 0.00 | 0.00 | 0.00 | 48 | 1012.0 |
| 20260504012333 | 67 | 171 | 0.0 | 0.0 | 0.00 | 0.00 | 0.00 | 46 | 1012.0 |